DW7394 Weather Reports


Display with metric or nautical units.
time (UTC)temp
F
wind
direction
speed
MPH
gust
MPH
rain 1hr
in
rain 24hr
in
rain mn
in
humidity
%
barometer
mb
20260505210534 57 264 3.0 15.0 0.24 0.30 0.28 85 1006.4
20260505210036 57 226 3.0 9.0 0.16 0.22 0.21 85 1006.3
20260505205534 57 240 2.0 9.0 0.14 0.20 0.19 85 1006.2
20260505205033 57 250 3.0 9.0 0.10 0.15 0.14 85 1006.5
20260505204535 57 248 0.0 6.0 0.08 0.12 0.11 84 1006.2
20260505204032 57 41 1.0 6.0 0.09 0.12 0.11 84 1006.3
20260505203532 57 326 0.0 5.0 0.09 0.11 0.10 84 1006.3
20260505203033 58 316 1.0 5.0 0.07 0.09 0.08 83 1006.4
20260505202530 58 214 0.0 7.0 0.07 0.09 0.08 83 1006.2
20260505202102 58 41 2.0 7.0 0.06 0.08 0.07 83 1006.3
20260505201559 58 264 1.0 6.0 0.05 0.07 0.06 82 1006.4
20260505201058 58 231 2.0 6.0 0.04 0.06 0.05 82 1006.3
20260505200557 58 267 3.0 13.0 0.05 0.06 0.05 81 1006.3
20260505200105 59 218 1.0 13.0 0.05 0.06 0.05 81 1006.3
20260505195553 59 119 1.0 4.0 0.05 0.06 0.05 80 1006.4
20260505195052 59 326 1.0 6.0 0.04 0.05 0.04 79 1006.4
20260505194554 60 303 1.0 7.0 0.03 0.04 0.03 78 1006.4
20260505194051 60 239 3.0 8.0 0.02 0.03 0.02 77 1006.4
20260505193550 61 173 2.0 8.0 0.01 0.02 0.01 76 1006.4
20260505193051 61 309 1.0 10.0 0.01 0.02 0.01 76 1006.5
20260505192549 61 254 4.0 10.0 0.01 0.02 0.01 75 1006.3
20260505192051 62 229 1.0 10.0 0.01 0.02 0.01 75 1006.3
20260505191548 62 233 2.0 11.0 0.01 0.02 0.01 74 1006.4
20260505191047 62 221 4.0 13.0 0.01 0.02 0.01 74 1006.3
20260505190545 62 229 5.0 13.0 0.00 0.01 0.00 74 1006.4
20260505190046 62 245 6.0 14.0 0.00 0.01 0.00 73 1006.4
20260505185544 62 250 5.0 14.0 0.00 0.01 0.00 73 1006.4
20260505185044 63 232 4.0 16.0 0.00 0.01 0.00 73 1006.4
20260505184544 63 173 4.0 18.0 0.00 0.01 0.00 72 1006.4
20260505184044 63 226 9.0 21.0 0.00 0.01 0.00 72 1006.4
20260505183543 63 214 9.0 21.0 0.00 0.01 0.00 72 1006.5
20260505183054 63 190 6.0 19.0 0.00 0.01 0.00 71 1006.5
20260505182544 63 259 7.0 19.0 0.00 0.01 0.00 72 1006.5
20260505182042 63 208 6.0 19.0 0.00 0.01 0.00 71 1006.5
20260505181543 63 235 7.0 19.0 0.00 0.01 0.00 71 1006.5
20260505181044 63 323 3.0 18.0 0.00 0.01 0.00 71 1006.4
20260505180540 63 248 9.0 18.0 0.00 0.01 0.00 71 1006.4
20260505180043 64 245 4.0 14.0 0.00 0.01 0.00 71 1006.4
20260505175539 64 241 3.0 17.0 0.00 0.01 0.00 71 1006.3
20260505175038 64 216 9.0 18.0 0.00 0.01 0.00 71 1006.3
20260505174545 64 326 6.0 22.0 0.00 0.01 0.00 70 1006.3
20260505174041 64 264 6.0 23.0 0.00 0.01 0.00 70 1006.2
20260505173538 64 267 9.0 23.0 0.00 0.01 0.00 70 1006.2
20260505173037 64 281 4.0 25.0 0.00 0.01 0.00 69 1006.1
20260505172540 64 255 12.0 25.0 0.00 0.01 0.00 70 1006.2
20260505172036 64 196 9.0 21.0 0.00 0.01 0.00 69 1006.2
20260505171538 64 317 7.0 21.0 0.00 0.01 0.00 69 1006.1
20260505171035 64 211 7.0 27.0 0.00 0.01 0.00 68 1006.2
20260505170534 64 227 11.0 27.0 0.00 0.01 0.00 68 1006.2
20260505170034 64 243 7.0 24.0 0.00 0.01 0.00 68 1006.1
20260505165532 65 259 4.0 24.0 0.00 0.01 0.00 67 1006.2
20260505165032 65 253 6.0 18.0 0.00 0.01 0.00 67 1006.1
20260505164535 65 236 9.0 22.0 0.00 0.01 0.00 67 1006.1
20260505164032 65 156 13.0 27.0 0.00 0.01 0.00 66 1006.0
20260505163530 66 259 13.0 27.0 0.00 0.01 0.00 66 1006.1
20260505163032 66 257 14.0 27.0 0.00 0.01 0.00 66 1006.1
20260505162529 67 250 8.0 25.0 0.00 0.01 0.00 65 1006.1
20260505162028 67 245 12.0 25.0 0.00 0.01 0.00 65 1005.9
20260505161528 67 230 12.0 25.0 0.00 0.01 0.00 64 1005.9
20260505161027 68 254 11.0 25.0 0.00 0.01 0.00 64 1005.9
20260505160527 68 248 10.0 25.0 0.00 0.01 0.00 63 1005.8
20260505153023 68 154 12.0 28.0 0.00 0.01 0.00 63 1005.0
20260505152519 68 236 12.0 28.0 0.00 0.01 0.00 64 1004.8
20260505152020 68 227 14.0 26.0 0.00 0.01 0.00 63 1004.7
20260505151517 67 210 13.0 26.0 0.00 0.01 0.00 64 1004.8
20260505151016 67 213 12.0 29.0 0.00 0.01 0.00 67 1005.0
20260505150520 67 207 12.0 29.0 0.00 0.01 0.00 66 1005.0
20260505140504 65 207 18.0 33.0 0.00 0.01 0.00 69 1004.6
20260505124654 60 215 8.0 25.0 0.00 0.01 0.00 74 1005.0
20260505124054 60 230 13.0 25.0 0.00 0.01 0.00 73 1005.0
20260505123551 60 247 11.0 22.0 0.00 0.01 0.00 73 1004.8
20260505123054 60 199 11.0 21.0 0.00 0.01 0.00 73 1004.7
20260505122551 60 186 8.0 23.0 0.00 0.01 0.00 73 1004.6
20260505122049 60 225 12.0 23.0 0.00 0.01 0.00 73 1004.6
20260505121548 60 230 13.0 22.0 0.00 0.01 0.00 73 1004.4
20260505121047 60 193 9.0 20.0 0.00 0.01 0.00 73 1004.1
20260505120546 60 245 10.0 23.0 0.00 0.01 0.00 73 1004.1
20260505120050 60 203 11.0 23.0 0.00 0.01 0.00 73 1004.0
20260505115544 60 180 7.0 21.0 0.00 0.01 0.00 73 1003.8
20260505115043 60 184 12.0 21.0 0.00 0.01 0.00 73 1003.7
20260505114551 60 206 9.0 16.0 0.00 0.01 0.00 73 1003.7
20260505114042 60 112 5.0 15.0 0.00 0.01 0.00 73 1003.6
20260505113544 60 204 9.0 25.0 0.00 0.01 0.00 73 1003.7
20260505113039 60 247 11.0 25.0 0.00 0.01 0.00 72 1003.6
20260505112538 61 185 13.0 24.0 0.00 0.01 0.00 72 1003.6
20260505112037 61 215 12.0 24.0 0.00 0.01 0.00 71 1003.5
20260505111536 62 246 10.0 35.0 0.00 0.01 0.00 70 1003.6
20260505111037 62 214 18.0 35.0 0.00 0.01 0.00 68 1003.7
20260505110534 62 231 16.0 31.0 0.00 0.01 0.00 67 1003.6
20260505102025 63 218 8.0 26.0 0.00 0.01 0.00 68 1003.3
20260505101539 63 199 13.0 26.0 0.00 0.01 0.00 68 1003.3
20260505101024 63 201 11.0 27.0 0.00 0.01 0.00 67 1003.0
20260505100525 63 193 14.0 27.0 0.00 0.01 0.00 67 1003.0
20260505100023 64 229 10.0 25.0 0.00 0.01 0.00 67 1002.8
20260505095623 64 186 13.0 29.0 0.00 0.01 0.00 67 1002.9
20260505095021 64 221 13.0 32.0 0.00 0.01 0.00 66 1002.8
20260505094532 64 228 13.0 29.0 0.00 0.01 0.00 66 1002.6
20260505094020 64 227 16.0 29.0 0.00 0.01 0.00 66 1002.5
20260505093520 64 230 14.0 31.0 0.00 0.01 0.00 66 1002.5
20260505093020 64 194 17.0 31.0 0.00 0.01 0.00 65 1002.4
20260505092522 64 226 13.0 28.0 0.00 0.01 0.00 65 1002.3
20260505092018 64 228 15.0 26.0 0.00 0.01 0.00 65 1002.3
20260505091517 65 220 12.0 29.0 0.00 0.01 0.00 65 1002.2
20260505091018 65 163 14.0 29.0 0.00 0.01 0.00 65 1002.2
20260505090518 65 199 14.0 26.0 0.00 0.01 0.00 65 1002.1
20260505090021 65 210 11.0 33.0 0.00 0.01 0.00 65 1002.2
20260505085519 65 259 17.0 33.0 0.00 0.01 0.00 64 1002.2
20260505085015 65 205 15.0 32.0 0.00 0.01 0.00 64 1002.2
20260505084515 65 247 17.0 30.0 0.00 0.01 0.00 64 1002.0
20260505084016 65 215 11.0 30.0 0.00 0.01 0.00 64 1002.0
20260505083513 65 232 16.0 30.0 0.00 0.01 0.00 65 1002.1
20260505083020 65 205 12.0 35.0 0.00 0.01 0.00 65 1002.1
20260505082516 65 209 16.0 36.0 0.00 0.01 0.00 65 1002.2
20260505082017 65 258 14.0 36.0 0.00 0.01 0.00 65 1002.2
20260505081612 65 204 16.0 32.0 0.00 0.01 0.00 65 1002.3
20260505081019 65 216 13.0 32.0 0.00 0.01 0.00 66 1002.2
20260505080510 65 224 16.0 32.0 0.00 0.01 0.00 66 1002.0
20260505080013 65 217 11.0 32.0 0.00 0.01 0.00 66 1001.9
20260505075513 65 218 16.0 34.0 0.00 0.01 0.00 66 1001.9
20260505075016 65 232 18.0 36.0 0.00 0.01 0.00 66 1002.0
20260505074508 65 199 16.0 36.0 0.00 0.01 0.00 67 1002.0
20260505074008 65 193 14.0 28.0 0.00 0.01 0.00 67 1001.8
20260505073511 64 247 12.0 29.0 0.00 0.01 0.00 68 1001.9
20260505073006 64 201 16.0 30.0 0.00 0.01 0.00 68 1001.8
20260505072505 64 170 10.0 30.0 0.00 0.01 0.00 68 1001.9
20260505072005 64 201 12.0 24.0 0.00 0.01 0.00 68 1001.8
20260505071515 64 191 8.0 24.0 0.00 0.01 0.00 68 1001.6
20260505071005 64 198 7.0 23.0 0.00 0.01 0.00 68 1001.7
20260505070507 65 218 14.0 26.0 0.00 0.01 0.00 68 1001.7
20260505070003 65 185 13.0 26.0 0.00 0.01 0.00 67 1001.8
20260505065502 65 204 12.0 24.0 0.00 0.01 0.00 66 1002.0
20260505065004 65 203 12.0 22.0 0.00 0.01 0.00 66 1002.1
20260505064504 65 245 8.0 22.0 0.00 0.01 0.00 66 1002.0
20260505064002 65 169 11.0 26.0 0.00 0.01 0.00 66 1002.0
20260505063600 65 184 9.0 29.0 0.00 0.01 0.00 66 1002.0
20260505063059 65 226 12.0 29.0 0.00 0.01 0.00 66 1002.0
20260505062602 65 205 11.0 24.0 0.00 0.01 0.00 66 1002.1
20260505062100 65 173 9.0 21.0 0.00 0.01 0.00 66 1002.1
20260505061556 65 190 11.0 22.0 0.00 0.01 0.00 66 1002.3
20260505061056 65 203 10.0 23.0 0.00 0.01 0.00 66 1002.3
20260505060557 65 206 10.0 23.0 0.00 0.01 0.00 66 1002.3
20260505060056 65 179 7.0 32.0 0.00 0.01 0.00 66 1002.3
20260505055558 65 202 14.0 32.0 0.00 0.01 0.00 66 1002.4
20260505055055 65 201 9.0 26.0 0.00 0.01 0.00 66 1002.4
20260505054554 65 195 15.0 33.0 0.00 0.01 0.00 66 1002.6
20260505054055 65 224 15.0 29.0 0.00 0.01 0.00 66 1002.5
20260505053551 65 200 11.0 27.0 0.00 0.01 0.00 66 1002.6
20260505053152 65 247 12.0 25.0 0.00 0.01 0.00 66 1002.6
20260505052550 65 181 11.0 25.0 0.00 0.01 0.00 66 1002.7
20260505052049 65 173 11.0 25.0 0.00 0.01 0.00 67 1002.8
20260505051558 65 191 8.0 23.0 0.00 0.01 0.00 67 1002.7
20260505051048 65 197 11.0 22.0 0.00 0.01 0.00 67 1002.9
20260505050551 65 201 11.0 27.0 0.00 0.01 0.00 67 1002.8
20260505041540 64 175 10.0 23.0 0.00 0.01 0.00 67 1003.2
20260505041039 64 159 10.0 23.0 0.00 0.01 0.00 67 1003.2
20260505040538 64 173 11.0 23.0 0.00 0.01 0.00 67 1003.2
20260505040038 64 236 9.0 21.0 0.00 0.01 0.00 67 1003.2
20260505035537 64 176 8.0 21.0 0.00 0.01 0.01 67 1003.3
20260505035036 64 201 9.0 21.0 0.00 0.01 0.01 67 1003.4
20260505034536 64 201 12.0 21.0 0.00 0.01 0.01 67 1003.5
20260505034037 64 205 9.0 27.0 0.00 0.01 0.01 67 1003.4
20260505033536 64 152 14.0 28.0 0.00 0.01 0.01 66 1003.3
20260505033038 64 125 14.0 28.0 0.00 0.01 0.01 66 1003.5
20260505032535 64 168 10.0 23.0 0.00 0.01 0.01 66 1003.5
20260505032038 65 161 8.0 23.0 0.00 0.01 0.01 66 1003.5
20260505031534 65 206 9.0 25.0 0.00 0.01 0.01 66 1003.6
20260505031035 65 173 9.0 25.0 0.00 0.01 0.01 66 1003.5
20260505030536 65 168 11.0 25.0 0.00 0.01 0.01 66 1003.6
20260505030034 65 193 5.0 20.0 0.00 0.01 0.01 65 1003.6
20260505025534 65 188 10.0 24.0 0.00 0.01 0.01 65 1003.5
20260505025036 65 200 12.0 24.0 0.00 0.01 0.01 65 1003.6
20260505024534 65 241 8.0 26.0 0.00 0.01 0.01 65 1003.6
20260505024036 65 169 11.0 26.0 0.00 0.01 0.01 64 1003.6
20260505023538 65 204 8.0 25.0 0.00 0.01 0.01 64 1003.5
20260505023033 65 188 9.0 19.0 0.00 0.01 0.01 64 1003.6
20260505022533 66 180 7.0 21.0 0.00 0.01 0.01 63 1003.5
20260505022032 66 171 11.0 21.0 0.00 0.01 0.01 63 1003.5
20260505021533 66 179 8.0 19.0 0.00 0.01 0.01 62 1003.5
20260505021032 66 100 8.0 21.0 0.00 0.01 0.01 62 1003.5
20260505020532 66 188 9.0 23.0 0.00 0.01 0.01 61 1003.8
20260505020032 66 149 12.0 33.0 0.00 0.01 0.01 61 1003.8
20260505015532 67 229 9.0 33.0 0.00 0.01 0.01 61 1003.8
20260505015035 67 213 8.0 29.0 0.00 0.01 0.01 60 1003.7
20260505014532 67 221 13.0 32.0 0.00 0.01 0.01 60 1003.7
20260505014033 67 213 10.0 32.0 0.00 0.01 0.01 60 1003.7
20260505013531 67 192 10.0 22.0 0.00 0.01 0.01 59 1003.6
20260505013039 67 96 8.0 23.0 0.00 0.01 0.01 59 1003.6
20260505012530 67 236 11.0 28.0 0.00 0.01 0.01 59 1003.5
20260505012030 67 190 15.0 28.0 0.00 0.01 0.01 59 1003.5
20260505011530 67 188 14.0 27.0 0.00 0.01 0.01 59 1003.5
20260505011029 68 229 10.0 18.0 0.00 0.01 0.01 58 1003.3
20260505010529 68 179 7.0 26.0 0.00 0.01 0.01 58 1003.4
20260505010030 68 204 13.0 26.0 0.00 0.01 0.01 58 1003.4
20260505005533 68 210 8.0 21.0 0.00 0.01 0.01 58 1003.2
20260505005029 68 220 8.0 20.0 0.00 0.01 0.01 58 1003.2
20260505004529 68 177 8.0 18.0 0.00 0.01 0.01 58 1003.1
20260505004029 68 214 8.0 20.0 0.00 0.01 0.01 58 1003.0
20260505003533 68 199 11.0 20.0 0.00 0.01 0.01 58 1003.0
20260505003032 68 309 6.0 18.0 0.00 0.01 0.01 57 1003.0
20260505002528 69 218 9.0 21.0 0.00 0.01 0.01 57 1003.0
20260505002030 69 238 9.0 30.0 0.00 0.01 0.01 57 1002.9
20260505001528 69 167 15.0 30.0 0.00 0.01 0.01 57 1002.8
20260505001029 69 211 16.0 28.0 0.00 0.01 0.01 57 1002.8
20260505000531 69 184 10.0 26.0 0.00 0.01 0.01 57 1002.6
20260505000029 69 176 9.0 21.0 0.00 0.01 0.01 57 1002.5
20260504235527 70 217 9.0 27.0 0.00 0.01 0.01 56 1002.4
20260504235027 70 189 19.0 27.0 0.00 0.01 0.01 56 1002.3
20260504234526 70 185 9.0 21.0 0.00 0.01 0.01 56 1002.3
20260504234031 70 190 11.0 19.0 0.01 0.01 0.01 57 1002.3
20260504233526 70 194 9.0 33.0 0.01 0.01 0.01 57 1002.2
20260504233026 70 240 18.0 33.0 0.01 0.01 0.01 57 1002.3
20260504232526 70 191 8.0 26.0 0.01 0.01 0.01 58 1002.2
20260504232027 70 202 7.0 35.0 0.01 0.01 0.01 58 1002.2
20260504231526 70 209 9.0 35.0 0.01 0.01 0.01 58 1002.2
20260504231025 70 181 14.0 31.0 0.01 0.01 0.01 59 1002.3
20260504230525 70 214 11.0 29.0 0.01 0.01 0.01 60 1002.4
20260504230025 70 216 14.0 39.0 0.01 0.01 0.01 60 1002.2
20260504225524 69 196 14.0 39.0 0.01 0.01 0.01 61 1002.4
20260504225024 69 220 9.0 31.0 0.01 0.01 0.01 63 1002.7
20260504224522 69 229 13.0 32.0 0.01 0.01 0.01 63 1002.7
20260504224022 68 184 16.0 32.0 0.00 0.00 0.00 64 1002.7
20260504223521 68 205 8.0 21.0 0.00 0.00 0.00 67 1002.6
20260504223020 67 183 11.0 21.0 0.00 0.00 0.00 68 1002.7
20260504222523 67 160 5.0 17.0 0.00 0.00 0.00 69 1002.8
20260504222021 67 214 7.0 17.0 0.00 0.00 0.00 70 1002.8
20260504221518 67 126 4.0 11.0 0.00 0.00 0.00 70 1003.0
20260504221018 67 227 6.0 18.0 0.00 0.00 0.00 68 1003.2
20260504220518 68 206 8.0 27.0 0.00 0.00 0.00 68 1003.2
20260504220029 68 204 10.0 35.0 0.00 0.00 0.00 66 1003.3
20260504215515 69 210 19.0 35.0 0.00 0.00 0.00 64 1003.5
20260504215014 71 153 17.0 31.0 0.00 0.00 0.00 57 1003.2
20260504214520 71 260 7.0 23.0 0.00 0.00 0.00 56 1003.1
20260504214017 71 194 13.0 23.0 0.00 0.00 0.00 56 1003.1
20260504213513 71 274 10.0 21.0 0.00 0.00 0.00 56 1002.9
20260504213133 71 276 9.0 20.0 0.00 0.00 0.00 57 1002.9
20260504212511 71 167 9.0 28.0 0.00 0.00 0.00 56 1003.0
20260504212010 71 184 15.0 24.0 0.00 0.00 0.00 55 1003.0
20260504211521 71 197 13.0 28.0 0.00 0.00 0.00 54 1003.1
20260504211008 71 201 15.0 28.0 0.00 0.00 0.00 54 1003.3